Location: Grand Mazuras
(45.9128°N, 1.7636°E)
Time: 21:59:58
(UTC+00:00)

N. Korean satellite - Pass Details

Date: 30 September 2021
Orbit: 450 x 494 km, 97.3° (Epoch: 28 October)

Event Time Altitude Azimuth Distance (km) Brightness Sun altitude
Rises 04:17:37 0° 28° (NNE) 2,549 10.9 -16.8°
Reaches altitude 10° 04:20:12 10° 48° (NE) 1,672 10.2 -16.4°
Maximum altitude 04:22:43 18° 93° (E) 1,261 9.7 -15.9°
Drops below altitude 10° 04:25:15 10° 137° (SE) 1,678 9.7 -15.5°
Sets 04:27:50 0° 157° (SSE) 2,560 10.4 -15.1°
